TimeCST,TemperatureF,Dew PointF,Humidity,Sea Level PressureIn,VisibilityMPH,Wind Direction,Wind SpeedMPH,Gust SpeedMPH,PrecipitationIn,Events,Conditions,WindDirDegrees,DateUTC
12:53 AM,66.9,64.0,90,30.17,10.0,South,5.8,-,N/A,,Clear,180,2011-11-21 06:53:00
1:53 AM,63.0,62.1,97,30.17,6.0,SSE,4.6,-,N/A,,Clear,160,2011-11-21 07:53:00
2:53 AM,64.0,63.0,96,30.17,8.0,South,3.5,-,N/A,,Clear,170,2011-11-21 08:53:00
3:15 AM,60.8,60.8,100,30.17,0.8,Calm,Calm,-,N/A,,Mist,0,2011-11-21 09:15:00
3:53 AM,60.1,59.0,96,30.18,0.2,Calm,Calm,-,N/A,Fog,Fog,0,2011-11-21 09:53:00
4:29 AM,57.2,57.2,100,30.17,0.2,Calm,Calm,-,N/A,Fog,Fog,0,2011-11-21 10:29:00
4:53 AM,57.0,57.0,100,30.20,0.2,Calm,Calm,-,N/A,Fog,Fog,0,2011-11-21 10:53:00
5:02 AM,57.2,57.2,100,30.19,0.2,Calm,Calm,-,N/A,Fog,Fog,0,2011-11-21 11:02:00
5:30 AM,60.8,59.0,94,30.20,2.0,Calm,Calm,-,N/A,,Overcast,0,2011-11-21 11:30:00
5:37 AM,60.8,60.8,100,30.21,6.0,Calm,Calm,-,N/A,,Overcast,0,2011-11-21 11:37:00
5:53 AM,62.1,61.0,96,30.23,5.0,Calm,Calm,-,N/A,,Overcast,0,2011-11-21 11:53:00
6:53 AM,64.0,63.0,96,30.24,7.0,SSE,4.6,-,N/A,,Overcast,150,2011-11-21 12:53:00
7:53 AM,66.0,64.0,93,30.25,10.0,South,6.9,-,N/A,,Overcast,170,2011-11-21 13:53:00
8:18 AM,66.2,64.4,94,30.23,9.0,South,6.9,-,N/A,,Overcast,170,2011-11-21 14:18:00
8:53 AM,69.1,64.9,87,30.25,10.0,South,9.2,-,N/A,,Overcast,170,2011-11-21 14:53:00
9:53 AM,72.0,64.9,78,30.25,10.0,South,9.2,17.3,N/A,,Mostly Cloudy,190,2011-11-21 15:53:00
10:12 AM,73.4,64.4,73,30.22,10.0,South,16.1,19.6,N/A,,Scattered Clouds,170,2011-11-21 16:12:00
10:21 AM,73.4,64.4,73,30.22,10.0,South,15.0,18.4,N/A,,Mostly Cloudy,180,2011-11-21 16:21:00
10:29 AM,73.4,64.4,73,30.21,10.0,South,13.8,-,N/A,,Partly Cloudy,180,2011-11-21 16:29:00
10:53 AM,73.9,64.0,71,30.21,10.0,South,15.0,-,N/A,,Clear,170,2011-11-21 16:53:00
11:53 AM,77.0,64.0,64,30.17,10.0,South,18.4,-,N/A,,Clear,170,2011-11-21 17:53:00
12:53 PM,79.0,63.0,58,30.12,10.0,South,15.0,-,N/A,,Clear,180,2011-11-21 18:53:00
1:53 PM,80.1,62.1,54,30.10,10.0,South,11.5,-,N/A,,Clear,180,2011-11-21 19:53:00
2:53 PM,80.1,61.0,52,30.08,10.0,SSE,11.5,-,N/A,,Clear,150,2011-11-21 20:53:00
4:53 PM,73.9,61.0,64,30.08,10.0,SSE,6.9,-,N/A,,Clear,160,2011-11-21 22:53:00
5:53 PM,71.1,61.0,70,30.07,10.0,SE,6.9,-,N/A,,Clear,140,2011-11-21 23:53:00
6:53 PM,69.1,61.0,75,30.07,10.0,SE,4.6,-,N/A,,Clear,130,2011-11-22 00:53:00
7:53 PM,68.0,62.1,81,30.05,10.0,SE,9.2,-,N/A,,Clear,140,2011-11-22 01:53:00
8:53 PM,66.0,62.1,87,30.05,10.0,SE,6.9,-,N/A,,Clear,140,2011-11-22 02:53:00
9:53 PM,66.9,63.0,87,30.03,10.0,SE,8.1,-,N/A,,Clear,140,2011-11-22 03:53:00
10:53 PM,69.1,64.9,87,30.04,10.0,South,12.7,-,N/A,,Mostly Cloudy,170,2011-11-22 04:53:00
11:36 PM,69.8,64.4,83,30.02,10.0,South,16.1,-,N/A,,Mostly Cloudy,170,2011-11-22 05:36:00
11:53 PM,69.1,64.9,87,30.03,10.0,South,12.7,-,N/A,,Overcast,170,2011-11-22 05:53:00